NOAA 16 DEB, 41350

Orbit data source: Space-Track

NOAA 16 DEB, 41350 is space debris in SSO originally from a launch on Thu, 21 Sep 2000 UTC launched from the Air Force Western Test Range (AFWTR). Debris objects in space refer to the collection of defunct objects orbiting the Earth. Examples of debris include non-operational satellites, rocket bodies, and fragments generated from explosions, collisions, or faulty payload assembly.

Loading next visibility...
Identifier
41350, 2000-055HT
Orbit
SSO
Country
Flag of USUS
Related business
Manufacturer
Unknown
Mission
Spacecraft
Bus & Motor
Unknown
Mass
Unknown
Launch date (UTC)
2000-09-21 (26 years ago)
Launch vehicle
Unknown
Launch site
Air Force Western Test Range (AFWTR)
Object type
Payload
Rocket body
Debris
Shape & HBR
Unknown shape, 0.1 m
Radar Cross Section
Small (<0.1 m²)

Expand to show TLE details & history
Last TLE update: 2 days ago

TLE from 2 days ago
0 NOAA 16 DEB
1 41350U 00055HT  26105.84789797  .00003947  00000-0  99905-3 0  9994
2 41350  99.0412 324.4374 0017284 326.3027  33.7065 14.51448895529933
Epoch: 2026-04-15T20:20Z
TLE epoch observation values (Epoch: 2026-04-15T20:20:58.384Z)
Latitude
-0.0001°
Longitude
175.19023°
Altitude
713.664 km
Speed
7.504 km/s
True Right ascension
21h 37m 44s
True Declination
0° 00' 00"
Sunlit
Object was in daylight at epoch
Visualization orbit readout
Latitude
Unknown
Longitude
Unknown
Altitude
Unknown
Speed
Unknown
Apparent Right ascension
Unknown
Apparent Declination
Unknown
Sunlit
N/A
Visualization observer readout
Local Sidereal Time
15:53:35
Azimuth
Unknown
Elevation
Unknown
Doppler factor
Unknown
Orbital elements
Apogee altitude
730.318 km
Perigee altitude
705.788 km
Semi-major axis
7,096.19 km
Eccentricity
0.00173
Inclination
99.0412°
RAAN
324.4374°
Arg. of periapsis
326.3027°
True anomaly
33.81661°
Mean anomaly
33.7065°
Eccentric anomaly
33.76153°
Mean motion
3.63082 °/min
Orbital period
99.15 mins
BSTAR
0.00099905
Loading maneuver chart data...
Computing Atmospheric mass density...
Loading historical data...
Loading historical data...
Loading historical data...
Loading historical data...
Loading historical data...
Loading historical data...
Loading historical data...

Documentation

Showing up to 5 results
|